Flag for Taiwan Weather past 2 weeks in Kaohsiung, Taiwan

Now
79 °F

Broken clouds.


Feels Like: 80 °F
Forecast: 73 / 88 °F
Wind: 5 mph from East

Location: Kaohsiung International Airport

Current Time: Mar 30, 2015 at 8:44:10 AM

Latest Report: Mar 30, 2015 at 8:00 AM


Visibility: 4 mi

Pressure: 30.01 "Hg

Humidity: 58%

Dew point: 63 °F

Location of KaohsiungLocation

Historic Weather in Kaohsiung — Graph

°F

Kaohsiung temperature yesterday

Maximum temperature yesterday: 84 °F (at 2:30 PM)
Minimum temperature yesterday: 70 °F (at 5:00 AM)
Average temperature yesterday: 77 °F

Past Weeks' High & Low Weather Summary

 TemperatureHumidityPressure
High88 °F (Mar 19, 10:30 AM)100% (Mar 16, 3:00 AM)30.24 "Hg (Mar 16, 3:00 AM)
Low64 °F (Mar 24, 5:50 AM)49% (Mar 27, 2:00 PM)29.86 "Hg (Mar 17, 7:00 PM)
Average76 °F75%30.03 "Hg
* Reported Mar 15 7:00 AM — Mar 30 7:30 AM, Kaohsiung, Weather by CustomWeather, © 2015

Note: Actual official high and low records may vary slightly from our data, if they occured in-between our weather recording intervals... More about our weather records

Advertising

Kaohsiung weather history for previous 24 hours

 ConditionsComfort  
Time TempWeatherWind HumidityBarometerVisibility
7:30 AM
Mon, Mar 30
75 °FPartly sunny.5 mph69%30.01 "Hg4 mi
7:00 AM73 °FBroken clouds.6 mph74%30.01 "Hg5 mi
6:30 AM73 °FBroken clouds.5 mph74%29.98 "Hg5 mi
6:00 AM72 °FBroken clouds.3 mph78%29.98 "Hg4 mi
5:00 AM72 °FPassing clouds.5 mph78%29.98 "Hg4 mi
4:00 AM73 °FPassing clouds.3 mph69%29.95 "Hg4 mi
3:00 AM73 °FPassing clouds.3 mph74%29.98 "Hg4 mi
2:00 AM72 °FPassing clouds.3 mph78%29.98 "Hg5 mi
1:00 AM73 °FPassing clouds.3 mph69%29.98 "Hg6 mi
12:00 AM75 °FPassing clouds.3 mph69%30.01 "HgN/A
11:30 PM
Sun, Mar 29
73 °FPassing clouds.2 mph74%30.01 "HgN/A
11:00 PM75 °FPassing clouds.2 mph69%30.01 "HgN/A
10:30 PM75 °FPassing clouds.2 mph69%30.01 "Hg4 mi
10:00 PM75 °FPassing clouds.2 mph65%30.01 "HgN/A
9:30 PM75 °FPartly cloudy.2 mph69%30.01 "HgN/A
9:00 PM77 °FPartly cloudy.3 mph61%30.01 "HgN/A
8:30 PM77 °FPartly cloudy.5 mph61%30.01 "HgN/A
8:00 PM77 °FPassing clouds.3 mph65%30.01 "HgN/A
7:30 PM77 °FPassing clouds.5 mph65%30.01 "HgN/A
7:00 PM75 °FPartly cloudy.5 mph65%29.98 "HgN/A
6:30 PM75 °FPartly cloudy.6 mph69%29.98 "HgN/A
6:00 PM77 °FBroken clouds.7 mph65%29.98 "HgN/A
5:30 PM77 °FScattered clouds.10 mph65%29.98 "HgN/A
5:00 PM79 °FScattered clouds.10 mph61%29.98 "HgN/A
4:30 PM79 °FScattered clouds.10 mph65%29.95 "HgN/A
4:00 PM81 °FPartly sunny.9 mph62%29.95 "HgN/A
3:30 PM81 °FScattered clouds.10 mph62%29.95 "HgN/A
3:00 PM84 °FScattered clouds.9 mph58%29.95 "HgN/A
2:30 PM84 °FScattered clouds.9 mph58%29.98 "HgN/A
2:00 PM82 °FScattered clouds.12 mph62%29.98 "HgN/A
1:30 PM81 °FScattered clouds.10 mph62%29.98 "HgN/A
1:00 PM81 °FScattered clouds.10 mph62%29.98 "HgN/A
12:30 PM81 °FScattered clouds.10 mph62%30.01 "Hg4 mi
12:00 PM81 °FScattered clouds.10 mph62%30.04 "Hg6 mi
11:30 AM81 °FScattered clouds.7 mph62%30.04 "Hg5 mi
11:00 AM79 °FBroken clouds.6 mph65%30.07 "Hg4 mi
10:30 AM77 °FBroken clouds.7 mph69%30.07 "Hg4 mi
10:00 AM77 °FBroken clouds.7 mph69%30.07 "Hg4 mi
9:30 AM77 °FPartly sunny.2 mph69%30.07 "Hg5 mi
9:00 AM77 °FPartly sunny.2 mph69%30.07 "Hg6 mi
8:30 AM75 °FBroken clouds.5 mph78%30.07 "Hg6 mi
8:00 AM73 °FPartly sunny.6 mph78%30.07 "Hg4 mi
Weather by CustomWeather, © 2015

See weather overviewHow to use our weather pages